User: anonymous   Login
Location: Unspecified
(49.8670°N, 0.0000°E)
Time: 01:16:54
(UTC+00:00)
Language:

Transit 2A Rocket - Orbit

View from above orbital plane
View from above orbital plane
View from above satellite
View from above satellite

Ground track
Ground track

The orbit data is extracted from the following two-line orbital elements,

1    47U 60007C   19165.94076122 -.00000059 +00000-0 +12131-4 0  9994
2    47 066.6668 060.3009 0232262 214.4786 144.1068 14.42037924081546
Epoch (UTC): 14 June 2019 22:34:41
Eccentricity: 0.0232262
inclination: 66.6668°
perigee height: 586 km
apogee height: 917 km
right ascension of ascending node: 60.3009°
argument of perigee: 214.4786°
revolutions per day: 14.42037924
mean anomaly at epoch: 144.1068°
orbit number at epoch: 8154

The dashed part of the orbit path shows where the satellite is in the earth's shadow,  

DLR